sat.trackr.live / text

‹ back to catalog

MTG-S1

NORAD 64723 · 2025-143A

PAYLOAD ACTIVE UNKNOWN

§ Identity

Operator
Country
EUME
Launch date
2025-07-01
Launch site
AFETR
Launch vehicle
Mass (kg)
RCS (m²)

Purposes: comms, earth_obs

External: N2YO · Heavens-Above · Gunter

§ Orbital elements

Epoch: 2026-05-25T03:43:39.852768Z

Period
1,436.12 min
Inclination
0.6241°
Eccentricity
0.0001451
Mean motion
1.00269900 rev/d
Perigee alt
35,781.0 km
Apogee alt
35,793.2 km
Semi-major
42,165.3 km
B*
0.0000e+0
RAAN
334.2586°
Arg perigee
23.7139°
Mean anomaly
297.2479°
Rev number
318

§ Raw data

MTG-S11 64723U 25143A   26145.15532237 -.00000035  00000+0  00000+0 0  99902 64723   0.6241 334.2586 0001451  23.7139 297.2479  1.00269900  3183

JSON: /api/v1/satellites/64723 · /tle

For live sub-satellite position, see the globe view (requires WebGL).

§ Visibility from observer

Set your observer location to see the next 7 days of passes ≥ 10°. The values pass through the URL so the page stays shareable.

No JS? Fill the form by hand. The geolocation button needs JavaScript.